STARLINK-1718, 46674

Orbit data source: Space-Track

STARLINK-1718, 46674 is a payload satellite owned by SpaceX/Seattle (US) in LEO that was launched on Sun, 18 Oct 2020 UTC via an FALCON 9 launch vehicle from the Air Force Eastern Test Range (AFETR). Payload-class satellites include a variety of spacecraft equipped with specific instruments for various scientific and technological missions. These include communications satellites like Starlink; space stations such as the ISS; scientific satellites like the Hubble; Earth observation satellites from companies like Planet Labs, Umbra, and HawkEye 360; GPS; miniature CubeSats for education and research; and military/defense satellites.

Loading next visibility...
Identifier
46674, 2020-073E
Orbit
LEO
Country
Flag of USUS
Related business
Manufacturer
SpaceX/Seattle
Mission
Operational Commercial Communications
Bus & Motor
STARLINK, Unknown motor
Mass
260 kg wet, ~248 kg dry
Launch date (UTC)
2020-10-18 (5 years ago)
Launch vehicle
FALCON 9
Launch site
Air Force Eastern Test Range (AFETR)
Object type
Payload
Rocket body
Debris
Shape & HBR
Box + 1 Pan, 10.1 m
Radar Cross Section
13.562 m², Large (>1 m²)

Expand to show TLE details & history
Last TLE update: 18 hours ago

TLE from 18 hours ago
0 STARLINK-1718
1 46674U 20073E   25287.95232449  .00001455  00000-0  11662-3 0  9995
2 46674  53.0522 175.8607 0001610  80.9443 279.1728 15.06387548275160
Epoch: 2025-10-14T22:51Z
TLE epoch observation values (Epoch: 2025-10-14T22:51:20.835Z)
Latitude
-0.00005°
Longitude
169.29048°
Altitude
547.951 km
Speed
7.589 km/s
True Right ascension
11h 43m 26s
True Declination
0° 00' 00"
Sunlit
Object was in daylight at epoch
Visualization orbit readout
Latitude
Unknown
Longitude
Unknown
Altitude
Unknown
Speed
Unknown
Apparent Right ascension
Unknown
Apparent Declination
Unknown
Sunlit
N/A
Visualization observer readout
Local Sidereal Time
11:07:28
Azimuth
Unknown
Elevation
Unknown
Doppler factor
Unknown
Orbital elements
Apogee altitude
548.636 km
Perigee altitude
546.406 km
Semi-major axis
6,925.658 km
Eccentricity
0.00016
Inclination
53.0522°
RAAN
175.8607°
Arg. of periapsis
80.9443°
True anomaly
279.15459°
Mean anomaly
279.1728°
Eccentric anomaly
279.16369°
Mean motion
3.76575 °/min
Orbital period
95.6 mins
BSTAR
0.00011662
Loading maneuver chart data...
Computing Atmospheric mass density...
Loading historical data...
Loading historical data...
Loading historical data...
Loading historical data...
Loading historical data...
Loading historical data...
Loading historical data...

Documentation

Showing up to 5 results
|